Location: Sternwarte Stuttgart
(48.7670°N, 9.1830°E)
Time: 16:31:11
(UTC+02:00)

CZ-4B DEB - Pass Details

Date: 24 January 2019
Orbit: 841 x 861 km, 99.0° (Epoch: 19 April)

Event Time Altitude Azimuth Distance (km) Brightness Sun altitude
Rises 05:53:18 0° 11° (NNE) 3,436 7.4 -21.2°
Reaches altitude 10° 05:55:44 10° 7° (N) 2,493 6.7 -20.8°
Maximum altitude 06:01:06 54° 292° (WNW) 1,026 4.2 -19.9°
Drops below altitude 10° 06:06:24 10° 216° (SW) 2,464 6.3 -19.0°
Sets 06:08:47 0° 212° (SSW) 3,392 7.1 -18.7°
